Location: Lake_James_State_Park
(35.7270°N, 81.9020°W)
Time: 23:37:44
(UTC-04:00)

Daily predictions for brighter satellites

Satellite Brightness Start Highest point End
(mag) Time Altitude Azimuth Time Altitude Azimuth Time Altitude Azimuth
Cosmos 2227 4.3 20:26:14 10° NNW 20:32:00 84° ENE 20:37:41 10° SSE
Cosmos 1707 Rocket 3.6 20:29:23 10° S 20:33:49 90° ESE 20:38:15 10° N
Cosmos 1455 2.8 20:30:57 10° SSW 20:34:43 63° W 20:38:27 10° N
FENGYUN 3A 3.8 20:33:14 10° SSE 20:38:35 84° WSW 20:43:58 10° NNW
Cosmos 1733 Rocket 4.2 20:36:45 10° NNE 20:40:28 25° ENE 20:44:09 10° SE
Helios 1A 4.3 20:39:54 10° ESE 20:43:18 24° ENE 20:46:43 10° NNE
USA 267 3.7 20:38:34 10° NE 20:45:04 67° NW 20:51:32 10° WSW
Cosmos 1862 4.5 20:42:21 10° NNE 20:45:46 26° ENE 20:49:10 10° SE
Cosmos 1862 Rocket 4.3 20:43:41 10° SSE 20:47:42 34° E 20:51:44 10° NNE
Cosmos 1634 Rocket 4.1 20:50:59 10° S 20:57:16 85° W 21:03:39 10° N
Cosmos 2263 Rocket 2.6 20:54:55 10° N 21:00:16 46° ENE 21:05:09 12° SE
Cosmos 1092 Rocket 4.4 20:53:56 10° N 21:00:16 72° W 21:06:33 10° S
Spot 2 Rocket 3.5 20:56:15 10° SSE 21:01:20 87° ENE 21:06:26 10° NNW
Cosmos 1503 Rocket 4.0 20:59:05 10° NNW 21:04:21 88° ENE 21:09:32 10° SSE
USA 186 1.4 21:02:57 10° SSE 21:05:37 62° ENE 21:08:33 10° N
SAR-Lupe-4 4.3 21:03:05 14° SE 21:05:49 35° ENE 21:09:08 10° N
Cosmos 1939 Rocket 4.0 21:03:23 14° ESE 21:06:01 27° ENE 21:09:24 10° NNE
Resurs 1-3 3.7 21:02:55 10° S 21:07:17 82° WSW 21:11:42 10° NNW
Cosmos 2322 Rocket 3.0 21:03:37 10° SW 21:09:05 55° WNW 21:14:37 10° NNE
Cosmos 1354 Rocket 4.1 21:05:36 10° NNW 21:10:53 80° WSW 21:16:05 10° SSE
Atlas Centaur 2 2.9 21:07:02 10° WSW 21:13:09 54° S 21:19:23 15° E
H-2A R/B 4.2 21:12:30 10° SSW 21:16:09 38° W 21:19:45 10° NNW
Cosmos 2360 Rocket 2.2 21:11:11 10° S 21:16:44 63° ESE 21:22:20 10° NNE
USA 234 4.3 21:12:08 12° E 21:17:28 34° NNE 21:23:13 10° NNW
Cosmos 1825 2.3 21:15:05 10° N 21:18:52 74° W 21:22:39 10° S
COSMOS 2428 3.6 21:14:21 10° SSE 21:19:03 27° ESE 21:23:45 10° NE
Intercosmos 25 Rocket 3.5 21:16:58 10° SSW 21:20:07 64° W 21:24:05 10° N
Envisat 3.1 21:17:09 13° SSE 21:21:32 58° ENE 21:26:31 10° N
Cosmos 1655 Rocket 4.0 21:16:12 10° N 21:22:37 79° E 21:28:55 10° S
SAR-Lupe-1 4.3 21:21:01 22° SE 21:23:06 51° ENE 21:26:36 10° N
CZ-4B DEB 2.9 21:22:33 29° SE 21:23:43 45° ENE 21:26:38 10° N
Meteor 1-29 2.8 21:21:04 10° NNE 21:24:30 66° E 21:27:54 10° S
Lacrosse 4 Rocket 2.5 21:23:00 10° NW 21:27:11 45° WSW 21:31:24 10° S
Cosmos 1408 3.4 21:23:57 10° NNW 21:27:31 50° W 21:31:03 10° S
Cosmos 1867 4.1 21:22:47 10° NNW 21:28:00 43° NE 21:30:53 24° ESE
Helios 1B rocket 2.4 21:24:10 10° NNE 21:28:17 86° W 21:32:23 10° SSW
Milstar 3 3.5 21:21:49 10° W 21:29:51 42° SSW 21:33:52 21° SE
CZ-4B DEB 4.4 21:27:23 19° SSE 21:29:52 85° ENE 21:33:25 10° N
ATLAS 5 CENTAUR R/B 2.6 21:25:40 10° NNW 21:31:41 59° NE 21:35:40 24° SE
Cosmos 2221 Rocket 4.5 21:32:02 27° ESE 21:32:52 29° E 21:36:40 10° NNE
Cosmos 2279 Rocket 4.2 21:27:27 10° SSW 21:33:41 75° W 21:39:56 10° N
Cosmos 2322 3.6 21:28:44 10° SSW 21:34:25 77° ESE 21:40:08 10° NNE
SEDSat Delta rocket 3.7 21:30:13 10° W 21:35:08 54° S 21:37:59 27° ESE
SL-16 R/B 4.2 21:34:59 10° WSW 21:39:58 31° WNW 21:44:58 10° N
ERS-1 Rocket 3.4 21:42:02 30° ESE 21:43:54 43° ENE 21:48:39 10° N
SeaSat 1 4.4 21:44:57 14° ENE 21:46:15 15° NE 21:48:59 10° NNE
Sakura Rocket 3.8 21:43:05 10° SW 21:46:24 29° S 21:46:24 29° S
Resurs 01 Rocket 3.9 21:44:51 10° SSW 21:48:24 23° W 21:51:59 10° NW
Centaur AC-42 4.1 21:32:21 10° W 21:50:06 28° SSW 21:53:32 19° SSE
Cosmos 2237 Rocket 4.3 21:58:36 12° ENE 21:58:36 12° ENE 21:59:07 10° ENE
Cosmos 2333 4.3 21:52:02 15° S 21:56:40 53° ESE 22:02:14 10° NNE
NOSS 3-1 (C) 3.6 21:54:39 27° SSE 21:57:10 41° ESE 22:02:53 10° NE
YAOGAN 6 2.4 21:58:12 67° ESE 21:58:28 71° ENE 22:02:05 10° N
Cosmos 2333 Rocket 3.5 22:00:04 23° ENE 22:00:04 23° ENE 22:03:12 10° NE
SPOT 5 3.7 21:59:59 31° ENE 22:00:11 31° ENE 22:04:15 10° N
Cosmos 1908 Rocket 3.4 21:57:16 10° N 22:01:37 88° W 22:02:58 44° S
Cosmos 1844 Rocket 3.6 21:56:47 10° N 22:01:44 31° ENE 22:02:44 29° E
Cosmos 2278 Rocket 4.1 21:59:49 10° NNE 22:02:39 14° NE 22:03:38 13° ENE
USA 229 DEB 3.9 21:56:27 10° SW 22:03:14 72° WNW 22:10:10 10° NNE
USA 229 3.9 21:56:34 10° SW 22:03:20 72° WNW 22:10:17 10° NNE
MetOp-A 4.4 22:04:25 42° ESE 22:05:38 51° ENE 22:10:48 10° N
OAO 3 Rocket 3.4 22:02:12 10° W 22:06:58 53° SSW 22:07:39 49° SSE
Sich 1 Rocket 3.7 22:03:34 10° N 22:08:04 75° W 22:09:37 40° S
CZ-4C R/B 4.4 22:03:12 10° N 22:08:34 22° NE 22:11:50 17° ENE
NOSS 3-1 (A) 4.0 22:15:18 34° E 22:15:18 34° E 22:19:32 10° NE
Cosmos 1782 Rocket 3.4 22:11:53 10° N 22:16:16 76° E 22:16:25 75° ESE
SPOT 1/Viking Rocket 4.4 22:16:34 33° ENE 22:16:35 33° ENE 22:21:14 10° N
Cosmos 2219 Rocket 2.3 22:20:01 52° E 22:20:01 52° E 22:25:16 10° NNE
Cosmos 1777 Rocket 4.0 22:16:07 10° N 22:21:21 63° ENE 22:21:50 60° E
Okean 1-7 3.0 22:21:00 67° SSW 22:21:34 82° W 22:26:00 10° N
USA 245 4.3 22:21:27 52° E 22:21:55 54° ENE 22:26:45 10° N
Cosmos 1782 3.9 22:30:21 38° NNE 22:30:21 38° NNE 22:32:56 10° N
Okean 2 Rocket 3.2 22:26:51 10° N 22:30:54 69° NNE 22:30:54 69° NNE
Nimbus 7 Rocket 4.3 22:36:35 10° NNE 22:42:35 80° ESE 22:43:21 68° S
Terra 3.5 22:45:02 22° NE 22:45:02 22° NE 22:47:29 10° NNE
Cosmos 2263 Rocket 4.2 22:39:48 10° NW 22:43:46 20° W 22:46:54 13° SW
Meteor 1-27 Rocket 4.4 22:46:37 41° NE 22:46:37 41° NE 22:50:38 10° NNE
Cosmos 1417 Rocket 4.3 22:58:13 83° ESE 22:58:21 84° E 23:04:44 10° N
USA 234 3.2 22:59:28 65° SSW 23:00:07 70° SW 23:06:39 10° NW
Atlas Centaur 2 3.0 22:55:34 10° W 23:02:01 54° SSW 23:02:01 54° SSW
COSMOS 2428 4.1 22:57:55 10° SW 23:03:06 36° WNW 23:08:20 10° N
Cosmos 1745 Rocket 4.5 22:57:32 10° N 23:02:51 48° NE 23:02:51 48° NE
H-2A R/B 2.6 23:09:10 52° NNW 23:09:10 52° NNW 23:12:52 10° NNW
MOS 1-B Rocket 4.1 23:09:35 61° WSW 23:09:46 61° WSW 23:15:22 10° NNW
Cosmos 1980 4.3 23:13:33 49° NNE 23:13:33 49° NNE 23:17:37 10° NNE
Meteor 1-11 Rocket 4.3 23:09:29 10° N 23:13:39 51° NNE 23:13:39 51° NNE
NOSS 0 Rocket 4.0 23:16:17 74° NW 23:16:17 74° NW 23:22:10 10° NNE
ATLAS 5 CENTAUR R/B 4.1 23:11:19 10° WNW 23:16:07 23° WSW 23:17:14 22° SW
Cosmos 1844 4.0 23:11:46 10° NNW 23:16:28 61° NW 23:16:28 61° NW
SL-16 R/B 4.3 23:22:16 16° NE 23:22:16 16° NE 23:23:24 10° NE
ARGOS 4.0 23:18:59 43° W 23:18:59 43° W 23:23:48 10° NNW
SeaSat 1 3.5 23:24:45 44° NW 23:24:45 44° NW 23:28:09 10° NNW
H-2A R/B 4.1 23:31:00 25° NNW 23:31:00 25° NNW 23:32:51 10° NNW
Cosmos 2237 Rocket 3.1 23:40:20 46° NNW 23:40:20 46° NNW 23:44:42 10° NNE
Cosmos 2333 Rocket 3.4 23:41:57 37° WNW 23:42:30 38° WNW 23:47:52 10° N
Cosmos 1844 Rocket 4.2 23:40:42 10° NW 23:44:25 28° W 23:44:25 28° W
Cosmos 2278 Rocket 3.2 23:41:44 10° NNW 23:45:29 43° NNW 23:45:29 43° NNW
